This is the latest recevied weather packets stored in our database for station/object N3TJJ-2. If no packets are shown the sender has not sent any weather packets the latest 10 day(s).
| Time | Temp. | Humidity | Pressure | Rain* | Wind** | Luminosity | Snow |
|---|---|---|---|---|---|---|---|
| 1787900457 | 18.33° C | 33% | 1015.4 hPa | 1.02 mm | - | - | - |
| 1787900137 | 18.33° C | 33% | 1015.6 hPa | 1.27 mm | - | - | - |
| 1787899774 | 18.89° C | 33% | 1015.7 hPa | 2.03 mm | - | - | - |
| 1787899391 | 18.89° C | 33% | 1016 hPa | 2.03 mm | - | - | - |
| 1787899016 | 18.89° C | 32% | 1015.9 hPa | 2.03 mm | - | - | - |
| 1787898653 | 18.89° C | 33% | 1016.1 hPa | 2.03 mm | - | - | - |
| 1787898291 | 18.89° C | 33% | 1016.3 hPa | 2.03 mm | - | - | - |
| 1787897940 | 18.89° C | 33% | 1016.2 hPa | 2.03 mm | - | - | - |
| 1787897569 | 18.89° C | 33% | 1016.2 hPa | 1.78 mm | - | - | - |
| 1787897217 | 18.89° C | 34% | 1016.4 hPa | 1.27 mm | - | - | - |
| 1787896843 | 18.33° C | 35% | 1016.6 hPa | 1.02 mm | - | - | - |
| 1787896485 | 18.33° C | 36% | 1016.6 hPa | 0.76 mm | - | - | - |
| 1787896130 | 18.33° C | 37% | 1016.8 hPa | 0 mm | - | - | - |
| 1787895799 | 18.33° C | 37% | 1016.6 hPa | 0 mm | - | - | - |
| 1787895410 | 18.33° C | 38% | 1016.6 hPa | 0 mm | - | - | - |
| 1787895058 | 18.33° C | 38% | 1016.5 hPa | 0 mm | - | - | - |
| 1787894685 | 18.33° C | 39% | 1016.5 hPa | 0 mm | - | - | - |
| 1787894374 | 18.33° C | 40% | 1016.4 hPa | 0 mm | - | - | - |
| 1787894018 | 18.33° C | 41% | 1016.3 hPa | 0 mm | - | - | - |
| 1787893602 | 18.89° C | 40% | 1016.4 hPa | 0 mm | - | - | - |
| 1787893275 | 18.89° C | 41% | 1016.6 hPa | 0 mm | - | - | - |
| 1787892888 | 18.89° C | 39% | 1016.7 hPa | 0 mm | - | - | - |
| 1787892551 | 18.89° C | 38% | 1016.7 hPa | 0 mm | - | - | - |
| 1787892207 | 18.89° C | 36% | 1016.6 hPa | 0 mm | - | - | - |
| 1787891859 | 19.44° C | 34% | 1016.8 hPa | 0 mm | - | - | - |
* Rain latest hour (hover to see other rain measurements)
** Current wind speed in m/s (hover to see current wind gust speed)